Location: Columbia, SC
(34.0000°N, 81.0300°W)
Time: 09:58:04
(UTC-04:00)

Tiangong 1 - Visible Passes

Search period start: 28 April 2017 00:00
Search period end: 08 May 2017 00:00
Orbit: 329 x 352 km, 42.8° (Epoch: 26 April)

Date Brightness Start Highest point End Pass type
(mag) Time Alt. Az. Time Alt. Az. Time Alt. Az.
28 Apr 1.0 05:15:54 28° NW 05:17:10 67° NNE 05:19:59 10° ESE visible
29 Apr 1.4 05:37:43 22° W 05:38:58 34° SW 05:41:34 10° SSE visible
30 Apr 3.0 05:59:53 10° SW 06:00:30 11° SW 06:01:19 10° SSW visible
01 May 1.8 21:05:54 10° SSW 21:08:21 26° SE 21:08:51 25° SE visible
02 May 0.7 21:26:58 10° WSW 21:29:48 89° NW 21:30:52 35° ENE visible
03 May 2.5 21:48:45 10° W 21:51:21 32° NNW 21:52:23 24° NNE visible
04 May 0.8 20:34:09 10° WSW 20:37:00 83° NNW 20:39:50 10° ENE visible
04 May 3.4 22:10:54 10° WNW 22:12:59 18° NNW 22:13:26 18° N visible
05 May 2.7 20:55:48 10° W 20:58:24 31° NNW 21:00:59 10° NE visible
05 May 4.0 22:33:01 10° NW 22:34:09 14° NNW 22:34:09 14° NNW visible
06 May 3.5 21:17:48 10° WNW 21:19:53 18° NNW 21:21:57 10° NE visible
06 May 4.6 22:54:36 10° NNW 22:54:36 10° NNW 22:54:36 10° NNW visible
07 May 3.7 21:39:44 10° NW 21:41:23 14° N 21:43:02 10° NNE visible
